Regional Weather Roundup
Issued by NWS Charleston, WV

Home | Current Version | Previous Version | Text Only | Print | Product List | Glossary Off
Versions: 1 2 3 4 5 6 7 8 9 10 11 12 13 14 15 16 17 18 19 20 21 22 23 24 25 26 27 28 29 30 31 32 33 34 35 36 37 38 39 40 41 42 43 44 45 46 47 48 49 50

000
ASUS41 KRLX 191810
RWRRLX
West Virginia Regional Weather Roundup
National Weather Service Charleston WV
100 PM EST MON FEB 19 2018

Note: "fair" indicates few or no clouds below 12,000 feet with no
significant weather and/or obstructions to visibility.

WVZ003-191900-
Northern Panhandle of West Virginia

CITY           SKY/WX    TMP DP  RH WIND       PRES   REMARKS
WHEELING       LGT RAIN  57  52  83 SW14G20   30.13F
$$

WVZ009-191900-
Northwest West Virginia

CITY           SKY/WX    TMP DP  RH WIND       PRES   REMARKS
PARKERSBURG      N/A     68  54  60 SW13G25   30.16F
$$

WVZ006-191900-
Western West Virginia

CITY           SKY/WX    TMP DP  RH WIND       PRES   REMARKS
HUNTINGTON       N/A     71  56  58 S9        30.15F
$$

WVZ015-191900-
West Central West Virginia

CITY           SKY/WX    TMP DP  RH WIND       PRES   REMARKS
CHARLESTON     PTSUNNY   71  56  58 S17G23    30.18F
$$

WVZ022-031-191900-
North Central West Virginia

CITY           SKY/WX    TMP DP  RH WIND       PRES   REMARKS
CLARKSBURG     PTSUNNY   70  56  61 SW14      30.17F
MORGANTOWN     CLOUDY    63  53  70 S9        30.18F
$$

WVZ025-035-042-045-191900-
Southern West Virginia

CITY           SKY/WX    TMP DP  RH WIND       PRES   REMARKS
BECKLEY        PTSUNNY   62  51  67 SE12      30.27F
LOGAN            N/A     68  54  60 S10G20    30.21F
BLUEFIELD        N/A     60  48  64 S9        30.30F
LEWISBURG      PTSUNNY   51  47  84 NE6       30.33F
$$

WVZ047-191900-
Northern Mountains of West Virginia

CITY           SKY/WX    TMP DP  RH WIND       PRES   REMARKS
ELKINS           N/A     65  52  62 S15G22    30.23F
$$

WVZ052-191900-
Eastern Panhandle of West Virginia

CITY           SKY/WX    TMP DP  RH WIND       PRES   REMARKS
MARTINSBURG    PTSUNNY   51  42  71 S14       30.31F
PETERSBURG       N/A     63  48  58 S15G22    30.25F
$$



USA.gov is the U.S. government's official web portal to all federal, state and local government web resources and services.